"startDT [UTC]","vpos","CH4 [ppm]","stdev(CH4) [ppm]","CO2 [ppm]","stdev(CO2) [ppm]","H2O [ppm]","stdev(H2O)","p_LGR [torr]","T_LGR [C]","mt1_LGR [us]","mt2_LGR [us]","T_ECpre [C]","T_EC1 [C]","T_EC2 [C]","p_inlet [hPa]","p_in [hPa]","p_out [hPa]","T_inlet [C]","RH_inlet [%]","dwpt_inlet [C]","T_vent [C]","RH_vent [%]","dwpt_vent [C]","flow_vent [l min-1]","flow_inlet [l min-1]","dwpt_sample [C]","T_room [C]"
2012-05-14 00:00:00,0.0,1.8996,0.0008,404.10,0.32,189.0,40.6,138.15,26.38,24.59,36.27,0.04,-272.74,-272.74,-52,556,-918,21.2,10.4,-11.1,21.4,10.7,-10.6,5.73,2.34,-24.5,26.7
2012-05-14 00:01:00,0.0,1.8997,0.0011,404.11,0.28,191.1,35.8,138.15,26.39,24.59,36.27,0.04,-272.74,-272.74,-52,556,-918,21.2,10.5,-11.0,21.4,10.8,-10.5,5.73,2.29,-24.5,26.8
2012-05-14 00:02:00,0.0,1.8995,0.0010,404.14,0.32,183.0,30.5,138.15,26.39,24.59,36.27,0.04,-272.73,-272.74,-52,556,-918,21.2,10.5,-11.0,21.4,10.8,-10.5,5.73,2.32,-24.5,26.8
2012-05-14 00:03:00,0.0,1.8997,0.0011,404.14,0.31,192.0,36.4,138.15,26.39,24.59,36.27,0.04,-272.74,-272.74,-52,556,-918,21.2,10.5,-10.9,21.4,10.8,-10.4,5.73,2.40,-24.5,26.8
2012-05-14 00:04:00,0.0,1.8996,0.0008,404.22,0.35,186.3,33.4,138.15,26.40,24.59,36.27,0.04,-272.74,-272.74,-53,556,-918,21.2,10.5,-11.0,21.5,10.8,-10.4,5.73,2.39,-24.5,26.8
2012-05-14 00:05:00,0.0,1.8996,0.0007,404.19,0.31,185.3,41.7,138.15,26.40,24.59,36.27,0.04,-272.74,-272.73,-52,556,-918,21.2,10.6,-10.9,21.5,10.9,-10.4,5.73,2.32,-24.5,26.7
2012-05-14 00:06:00,0.0,1.8996,0.0010,404.19,0.31,187.6,30.8,138.15,26.40,24.59,36.27,0.04,-272.73,-272.73,-52,556,-918,21.2,10.5,-11.0,21.5,10.9,-10.4,5.73,2.29,-24.5,26.7
2012-05-14 00:07:00,0.0,1.8997,0.0008,404.18,0.31,201.5,32.9,138.15,26.41,24.59,36.27,0.04,-272.74,-272.74,-52,556,-918,21.2,10.4,-11.1,21.5,10.8,-10.5,5.73,2.35,-24.5,26.8
2012-05-14 00:08:00,0.0,1.8997,0.0008,404.24,0.31,190.6,38.9,138.15,26.41,24.59,36.26,0.04,-272.73,-272.73,-53,556,-918,21.2,10.5,-11.0,21.5,10.8,-10.5,5.73,2.40,-24.5,26.8
2012-05-14 00:09:00,0.0,1.8997,0.0009,404.17,0.34,192.8,39.6,138.15,26.41,24.59,36.26,0.04,-272.74,-272.73,-52,556,-918,21.2,10.5,-11.0,21.5,10.8,-10.4,5.73,2.36,-24.5,26.8
2012-05-14 00:10:00,0.0,1.8993,0.0008,404.15,0.29,185.0,34.2,138.15,26.42,24.60,36.27,0.04,-272.74,-272.74,-52,556,-918,21.3,10.5,-11.0,21.5,10.8,-10.5,5.73,2.29,-24.5,26.8
2012-05-14 00:11:00,0.0,1.8996,0.0009,404.11,0.32,178.8,37.5,138.15,26.42,24.59,36.27,0.04,-272.73,-272.74,-52,556,-918,21.3,10.5,-11.0,21.5,10.8,-10.4,5.73,2.31,-24.5,26.8
2012-05-14 00:12:00,0.0,1.8998,0.0009,404.12,0.29,198.9,34.9,138.15,26.43,24.59,36.26,0.04,-272.73,-272.73,-53,556,-918,21.2,10.6,-10.9,21.5,10.9,-10.4,5.73,2.38,-24.5,26.8
2012-05-14 00:13:00,0.0,1.8996,0.0009,404.20,0.27,189.6,29.2,138.15,26.43,24.59,36.27,0.04,-272.74,-272.74,-52,556,-917,21.2,10.6,-10.9,21.5,10.9,-10.4,5.73,2.40,-24.5,26.8
2012-05-14 00:14:00,0.0,1.8997,0.0009,404.11,0.30,186.1,41.8,138.15,26.43,24.59,36.27,0.04,-272.74,-272.74,-52,557,-918,21.3,10.5,-10.9,21.5,10.9,-10.4,5.73,2.33,-24.5,26.8
2012-05-14 00:15:00,0.0,1.8993,0.0010,404.11,0.30,194.0,35.5,138.15,26.43,24.59,36.27,0.04,-272.74,-272.73,-53,556,-918,21.3,10.6,-10.9,21.5,10.9,-10.4,5.73,2.28,-24.5,26.8
2012-05-14 00:16:00,0.0,1.8997,0.0010,403.98,0.28,184.7,32.5,138.15,26.44,24.59,36.27,0.04,-272.74,-272.74,-52,556,-918,21.3,10.5,-10.9,21.5,10.9,-10.4,5.73,2.33,-24.5,26.8
2012-05-14 00:17:00,0.0,1.8994,0.0009,404.20,0.28,204.5,34.8,138.15,26.44,24.59,36.26,0.04,-272.74,-272.74,-52,556,-918,21.3,10.5,-11.0,21.5,10.8,-10.4,5.73,2.40,-24.5,26.8
2012-05-14 00:18:00,0.0,1.8990,0.0009,404.07,0.34,189.8,37.8,138.15,26.44,24.59,36.27,0.04,-272.73,-272.74,-52,556,-918,21.3,10.5,-11.0,21.5,10.8,-10.4,5.73,2.38,-24.5,26.8
2012-05-14 00:19:00,0.0,1.8992,0.0008,404.17,0.30,203.3,30.4,138.15,26.45,24.59,36.27,0.04,-272.74,-272.73,-53,556,-918,21.3,10.5,-11.0,21.5,10.8,-10.4,5.73,2.31,-24.4,26.9
2012-05-14 00:20:00,0.0,1.8993,0.0009,404.04,0.27,202.8,35.7,138.15,26.45,24.59,36.27,0.04,-272.73,-272.74,-52,556,-918,21.3,10.5,-10.9,21.5,10.8,-10.4,5.73,2.30,-24.4,26.8
2012-05-14 00:21:00,0.0,1.8993,0.0009,404.10,0.32,202.9,35.3,138.15,26.46,24.59,36.27,0.04,-272.74,-272.73,-52,556,-918,21.3,10.7,-10.8,21.5,11.0,-10.2,5.73,2.36,-24.4,26.9
2012-05-14 00:22:00,0.0,1.8994,0.0010,404.14,0.29,206.2,31.8,138.15,26.46,24.59,36.26,0.04,-272.74,-272.73,-53,557,-918,21.3,10.7,-10.7,21.5,11.0,-10.1,5.73,2.40,-24.4,26.9
2012-05-14 00:23:00,0.0,1.8993,0.0010,404.05,0.35,195.1,37.2,138.15,26.47,24.59,36.27,0.04,-272.73,-272.73,-53,556,-918,21.3,10.6,-10.8,21.5,10.9,-10.3,5.73,2.36,-24.4,26.9
2012-05-14 00:24:00,0.0,1.8997,0.0008,404.08,0.36,200.4,38.1,138.15,26.47,24.59,36.27,0.04,-272.73,-272.74,-52,557,-918,21.3,10.6,-10.9,21.5,10.9,-10.3,5.73,2.29,-24.4,26.9
2012-05-14 00:25:00,0.0,1.8996,0.0010,404.10,0.32,199.8,34.9,138.15,26.48,24.59,36.26,0.04,-272.74,-272.73,-52,557,-918,21.3,10.6,-10.9,21.5,10.9,-10.3,5.73,2.30,-24.4,26.9
2012-05-14 00:26:00,0.0,1.8992,0.0007,404.18,0.29,198.8,39.7,138.15,26.48,24.59,36.27,0.04,-272.74,-272.73,-53,557,-918,21.3,10.7,-10.7,21.5,11.0,-10.2,5.73,2.37,-24.4,26.8
2012-05-14 00:27:00,0.0,1.8996,0.0010,404.09,0.27,202.7,36.9,138.14,26.48,24.59,36.27,0.04,-272.74,-272.74,-53,557,-918,21.3,10.7,-10.7,21.5,11.0,-10.1,5.73,2.40,-24.4,26.8
2012-05-14 00:28:00,0.0,1.8993,0.0008,404.07,0.28,205.9,34.7,138.15,26.49,24.59,36.27,0.04,-272.74,-272.74,-52,557,-918,21.3,10.7,-10.7,21.5,11.0,-10.2,5.73,2.34,-24.5,26.9
2012-05-14 00:29:00,0.0,1.8995,0.0009,404.01,0.28,195.1,35.1,138.15,26.49,24.59,36.28,0.04,-272.74,-272.73,-52,557,-918,21.3,10.6,-10.8,21.5,10.9,-10.3,5.73,2.28,-24.5,26.9
2012-05-14 00:30:00,0.0,1.8995,0.0010,404.15,0.31,195.8,28.4,138.15,26.50,24.59,36.27,0.04,-272.73,-272.74,-53,557,-917,21.3,10.6,-10.8,21.5,10.9,-10.3,5.73,2.32,-24.5,26.9
2012-05-14 00:31:00,0.0,1.8991,0.0009,404.01,0.33,191.0,40.1,138.15,26.50,24.60,36.27,0.04,-272.73,-272.74,-53,557,-918,21.3,10.7,-10.7,21.5,11.0,-10.2,5.73,2.39,-24.5,26.9
2012-05-14 00:32:00,0.0,1.8996,0.0007,404.13,0.35,205.5,37.0,138.15,26.50,24.59,36.27,0.04,-272.73,-272.73,-52,557,-917,21.3,10.7,-10.7,21.5,11.0,-10.2,5.73,2.39,-24.5,26.8
2012-05-14 00:33:00,0.0,1.8992,0.0010,404.12,0.28,201.9,37.4,138.15,26.51,24.59,36.27,0.04,-272.74,-272.74,-53,557,-918,21.3,10.7,-10.7,21.6,11.0,-10.2,5.73,2.32,-24.1,26.9
2012-05-14 00:34:00,0.0,1.8992,0.0006,404.14,0.29,198.7,40.1,138.15,26.51,24.59,36.27,0.04,-272.74,-272.74,-53,557,-918,21.3,10.6,-10.7,21.5,10.9,-10.2,5.73,2.28,-24.1,26.9
2012-05-14 00:35:00,0.0,1.8993,0.0010,404.20,0.32,206.0,38.4,138.15,26.52,24.60,36.26,0.04,-272.73,-272.73,-52,557,-918,21.3,10.6,-10.7,21.6,11.0,-10.2,5.73,2.33,-24.1,26.9
2012-05-14 00:36:00,0.0,1.8995,0.0008,404.01,0.27,205.2,36.8,138.15,26.52,24.59,36.27,0.04,-272.74,-272.73,-52,557,-918,21.3,10.6,-10.8,21.6,10.9,-10.2,5.73,2.39,-24.1,26.9
2012-05-14 00:37:00,0.0,1.8999,0.0010,404.03,0.27,199.3,35.6,138.15,26.53,24.59,36.26,0.04,-272.74,-272.74,-53,557,-918,21.4,10.6,-10.7,21.6,10.9,-10.2,5.73,2.38,-24.1,27.0
2012-05-14 00:38:00,0.0,1.8998,0.0009,404.04,0.37,213.6,29.0,138.15,26.53,24.60,36.26,0.04,-272.74,-272.74,-53,557,-918,21.3,10.5,-10.9,21.6,10.8,-10.3,5.73,2.31,-24.1,27.0
2012-05-14 00:39:00,0.0,1.9002,0.0009,403.89,0.33,209.3,32.0,138.15,26.53,24.59,36.27,0.04,-272.73,-272.74,-52,557,-918,21.4,10.5,-10.9,21.6,10.8,-10.3,5.73,2.29,-24.1,27.0
2012-05-14 00:40:00,0.0,1.8999,0.0010,403.95,0.30,213.8,36.3,138.14,26.54,24.60,36.27,0.04,-272.74,-272.74,-52,557,-918,21.3,10.6,-10.8,21.6,10.9,-10.2,5.73,2.35,-24.1,27.0
2012-05-14 00:41:00,0.0,1.9000,0.0009,403.90,0.31,200.4,34.7,138.14,26.54,24.59,36.27,0.04,-272.73,-272.74,-53,557,-918,21.4,10.5,-10.9,21.6,10.8,-10.3,5.73,2.40,-24.1,26.9
2012-05-14 00:42:00,0.0,1.8999,0.0010,403.90,0.28,204.7,31.9,138.14,26.55,24.59,36.27,0.04,-272.73,-272.73,-53,557,-918,21.4,10.6,-10.8,21.6,10.9,-10.3,5.73,2.37,-24.1,26.9
2012-05-14 00:43:00,0.0,1.9000,0.0009,404.01,0.30,209.5,44.5,138.14,26.55,24.59,36.26,0.04,-272.73,-272.73,-52,557,-918,21.4,10.5,-10.9,21.6,10.8,-10.3,5.73,2.30,-24.1,26.9
2012-05-14 00:44:00,0.0,1.9000,0.0009,403.84,0.30,209.2,43.8,138.14,26.55,24.59,36.27,0.04,-272.74,-272.74,-52,557,-918,21.4,10.5,-10.9,21.6,10.8,-10.3,5.73,2.29,-24.1,26.9
2012-05-14 00:45:00,0.0,1.9002,0.0009,403.92,0.33,207.6,34.0,138.15,26.56,24.59,36.26,0.04,-272.73,-272.73,-53,557,-917,21.4,10.5,-10.9,21.6,10.8,-10.3,5.73,2.36,-24.1,27.0
2012-05-14 00:46:00,0.0,1.8997,0.0008,403.88,0.33,204.6,28.5,138.14,26.56,24.60,36.27,0.26,-270.97,-271.88,-53,557,-918,21.4,10.5,-10.8,21.6,10.8,-10.3,5.42,2.42,-28.5,26.9
2012-05-14 00:47:00,0.0,1.9000,0.0009,403.98,0.29,198.9,37.8,138.14,26.57,24.60,36.26,0.04,-272.74,-272.74,-52,557,-917,21.4,10.5,-10.8,21.6,10.8,-10.3,5.73,2.36,-24.1,27.0
2012-05-14 00:48:00,0.0,1.9001,0.0010,403.99,0.29,209.7,38.3,138.14,26.57,24.59,36.26,0.04,-272.73,-272.73,-52,557,-918,21.4,10.5,-10.8,21.6,10.8,-10.3,5.73,2.30,-24.1,27.0
2012-05-14 00:49:00,0.0,1.8999,0.0009,403.99,0.32,210.0,32.2,138.14,26.57,24.60,36.27,0.04,-272.73,-272.73,-53,557,-918,21.4,10.5,-10.8,21.6,10.8,-10.3,5.73,2.30,-24.1,27.0
2012-05-14 00:50:00,0.0,1.8999,0.0011,404.05,0.27,201.7,36.9,138.14,26.58,24.59,36.26,0.04,-272.74,-272.74,-52,558,-918,21.4,10.5,-10.9,21.6,10.8,-10.3,5.73,2.36,-24.1,27.0
2012-05-14 00:51:00,0.0,1.8997,0.0008,404.01,0.30,212.4,36.3,138.14,26.58,24.59,36.27,0.04,-272.74,-272.74,-52,557,-918,21.4,10.5,-10.8,21.6,10.8,-10.3,5.73,2.39,-24.1,27.0
2012-05-14 00:52:00,0.0,1.8999,0.0010,404.01,0.21,209.1,36.3,138.14,26.59,24.59,36.26,0.04,-272.74,-272.73,-52,558,-918,21.4,10.6,-10.7,21.6,10.9,-10.2,5.73,2.36,-24.1,27.0
2012-05-14 00:53:00,0.0,1.8998,0.0009,404.10,0.27,206.1,35.9,138.14,26.59,24.59,36.26,0.04,-272.73,-272.74,-53,557,-917,21.4,10.6,-10.7,21.7,10.9,-10.2,5.73,2.29,-24.1,27.0
2012-05-14 00:54:00,0.0,1.8997,0.0009,404.11,0.29,204.4,36.6,138.14,26.59,24.59,36.26,0.04,-272.74,-272.74,-52,557,-918,21.4,10.7,-10.6,21.7,11.0,-10.1,5.73,2.30,-24.1,27.0
2012-05-14 00:55:00,0.0,1.9000,0.0010,403.86,0.30,204.6,37.8,138.14,26.60,24.59,36.27,0.04,-272.74,-272.73,-52,557,-917,21.4,10.7,-10.6,21.7,11.0,-10.1,5.73,2.36,-24.0,27.0
2012-05-14 00:56:00,0.0,1.9001,0.0010,403.82,0.31,210.0,35.0,138.14,26.60,24.59,36.27,0.04,-272.73,-272.73,-52,558,-918,21.4,10.6,-10.7,21.7,10.9,-10.2,5.73,2.39,-24.0,27.0
2012-05-14 00:57:00,0.0,1.9005,0.0008,403.83,0.34,215.7,35.3,138.14,26.60,24.59,36.27,0.04,-272.74,-272.74,-53,557,-918,21.4,10.6,-10.7,21.7,10.9,-10.2,5.73,2.35,-24.1,27.0
2012-05-14 00:58:00,0.0,1.9002,0.0010,403.72,0.25,217.0,35.2,138.14,26.61,24.60,36.27,0.04,-272.74,-272.74,-52,557,-918,21.4,10.5,-10.8,21.7,10.8,-10.3,5.73,2.30,-24.1,27.0
2012-05-14 00:59:00,0.0,1.9003,0.0008,403.76,0.29,209.9,36.2,138.14,26.61,24.59,36.26,0.04,-272.74,-272.74,-52,557,-918,21.4,10.5,-10.9,21.7,10.8,-10.4,5.73,2.30,-24.1,27.0
2012-05-14 01:00:00,0.0,1.9009,0.0009,403.57,0.25,225.1,36.6,138.14,26.62,24.59,36.27,0.04,-272.74,-272.74,-53,558,-918,21.5,10.6,-10.7,21.7,10.9,-10.2,5.73,2.35,-24.0,27.0
2012-05-14 01:01:00,0.0,1.9009,0.0011,403.76,0.31,206.8,31.2,138.14,26.62,24.59,36.26,0.04,-272.74,-272.74,-53,557,-918,21.5,10.3,-11.0,21.7,10.7,-10.5,5.73,2.39,-24.0,27.0
2012-05-14 01:02:00,0.0,1.9007,0.0009,403.74,0.27,210.6,35.5,138.14,26.63,24.60,36.27,0.04,-272.73,-272.74,-52,558,-918,21.5,10.3,-11.0,21.7,10.6,-10.5,5.73,2.37,-24.0,27.0
2012-05-14 01:03:00,0.0,1.9008,0.0010,403.57,0.37,227.9,31.0,138.14,26.63,24.60,36.27,0.04,-272.73,-272.73,-52,558,-918,21.5,10.3,-11.1,21.7,10.6,-10.5,5.73,2.31,-24.0,27.0
2012-05-14 01:04:00,0.0,1.9014,0.0008,403.59,0.31,224.1,36.5,138.14,26.64,24.59,36.28,0.04,-272.74,-272.74,-52,558,-918,21.5,10.4,-10.9,21.7,10.7,-10.4,5.73,2.30,-24.0,27.0
2012-05-14 01:05:00,0.0,1.9009,0.0009,403.65,0.27,226.9,41.9,138.14,26.64,24.60,36.27,0.04,-272.74,-272.74,-53,558,-918,21.5,10.3,-11.0,21.7,10.7,-10.4,5.73,2.33,-24.0,27.0
2012-05-14 01:06:00,0.0,1.9015,0.0009,403.60,0.34,213.9,45.1,138.14,26.64,24.59,36.27,0.04,-272.74,-272.73,-52,558,-917,21.5,10.4,-10.9,21.7,10.7,-10.4,5.73,2.39,-24.0,27.0
2012-05-14 01:07:00,0.0,1.9010,0.0010,403.68,0.32,215.8,33.5,138.14,26.65,24.60,36.26,0.04,-272.73,-272.73,-52,558,-918,21.5,10.5,-10.9,21.7,10.8,-10.3,5.73,2.38,-24.0,27.0
2012-05-14 01:08:00,0.0,1.9015,0.0009,403.55,0.28,217.6,34.4,138.14,26.65,24.59,36.27,0.04,-272.73,-272.74,-52,558,-918,21.5,10.5,-10.8,21.7,10.8,-10.3,5.73,2.33,-24.0,27.1
2012-05-14 01:09:00,0.0,1.9014,0.0008,403.58,0.29,217.4,32.8,138.14,26.66,24.59,36.27,0.04,-272.73,-272.73,-53,557,-918,21.5,10.2,-11.2,21.7,10.5,-10.7,5.73,2.29,-24.0,27.1
2012-05-14 01:10:00,0.0,1.9016,0.0009,403.64,0.31,222.0,36.3,138.14,26.66,24.59,36.27,0.04,-272.74,-272.74,-52,558,-917,21.5,10.2,-11.2,21.7,10.5,-10.6,5.73,2.31,-24.0,27.0
2012-05-14 01:11:00,0.0,1.9017,0.0008,403.59,0.28,224.2,34.7,138.14,26.67,24.59,36.27,0.04,-272.74,-272.74,-52,558,-918,21.5,10.3,-11.0,21.7,10.6,-10.5,5.73,2.38,-24.0,27.1
2012-05-14 01:12:00,0.0,1.9014,0.0010,403.58,0.29,219.7,41.9,138.14,26.67,24.60,36.27,0.04,-272.73,-272.74,-52,558,-917,21.5,10.4,-11.0,21.7,10.7,-10.4,5.73,2.39,-24.0,27.1
2012-05-14 01:13:00,0.0,1.9019,0.0010,403.60,0.31,227.6,34.0,138.14,26.68,24.59,36.27,0.04,-272.73,-272.73,-53,558,-918,21.5,10.3,-11.0,21.7,10.6,-10.5,5.73,2.34,-24.0,27.1
2012-05-14 01:14:00,0.0,1.9017,0.0009,403.59,0.24,227.0,37.4,138.14,26.68,24.59,36.27,0.04,-272.74,-272.74,-52,558,-917,21.5,10.3,-11.0,21.7,10.6,-10.5,5.73,2.29,-24.0,27.1
2012-05-14 01:15:00,0.0,1.9020,0.0009,403.59,0.29,216.9,32.5,138.14,26.69,24.59,36.27,0.04,-272.73,-272.74,-52,558,-918,21.5,10.4,-10.9,21.7,10.7,-10.4,5.73,2.30,-24.0,27.1
2012-05-14 01:16:00,0.0,1.9017,0.0009,403.56,0.32,224.3,44.3,138.14,26.69,24.59,36.28,0.04,-272.73,-272.74,-52,558,-917,21.5,10.6,-10.7,21.8,10.9,-10.2,5.73,2.36,-24.0,27.1
2012-05-14 01:17:00,0.0,1.9012,0.0008,403.78,0.22,221.2,36.8,138.14,26.69,24.59,36.27,0.04,-272.73,-272.74,-53,558,-918,21.5,10.7,-10.5,21.8,11.0,-10.0,5.73,2.39,-24.0,27.1
2012-05-14 01:18:00,0.0,1.9009,0.0010,403.73,0.33,228.4,35.3,138.14,26.70,24.59,36.27,0.04,-272.74,-272.73,-53,558,-917,21.5,10.8,-10.4,21.8,11.1,-9.9,5.73,2.36,-24.0,27.1
2012-05-14 01:19:00,0.0,1.9009,0.0007,403.81,0.28,222.7,30.6,138.14,26.70,24.60,36.27,0.04,-272.73,-272.74,-52,558,-918,21.5,11.0,-10.2,21.8,11.3,-9.6,5.73,2.31,-24.0,27.1
2012-05-14 01:20:00,0.0,1.9012,0.0007,403.69,0.23,216.0,33.5,138.14,26.71,24.59,36.28,0.04,-272.73,-272.74,-52,558,-918,21.5,11.0,-10.2,21.8,11.3,-9.6,5.73,2.29,-24.0,27.1
2012-05-14 01:21:00,0.0,1.9012,0.0009,403.77,0.33,227.0,34.9,138.14,26.71,24.59,36.27,0.04,-272.74,-272.74,-53,558,-918,21.6,11.0,-10.1,21.8,11.3,-9.6,5.73,2.33,-24.0,27.2
2012-05-14 01:22:00,0.0,1.9008,0.0009,403.73,0.35,222.7,33.4,138.14,26.72,24.60,36.27,0.04,-272.73,-272.73,-53,558,-918,21.6,11.1,-10.1,21.8,11.4,-9.5,5.73,2.38,-24.0,27.2
2012-05-14 01:23:00,0.0,1.9013,0.0010,403.76,0.26,229.3,39.1,138.14,26.72,24.59,36.27,0.04,-272.74,-272.74,-52,558,-918,21.6,11.1,-10.0,21.8,11.4,-9.5,5.73,2.38,-24.0,27.2
2012-05-14 01:24:00,0.0,1.9010,0.0008,403.70,0.29,230.0,37.2,138.14,26.73,24.60,36.27,0.04,-272.74,-272.74,-52,558,-918,21.6,11.0,-10.1,21.8,11.4,-9.6,5.73,2.33,-24.0,27.1
2012-05-14 01:25:00,0.0,1.9014,0.0009,403.74,0.28,225.4,34.6,138.14,26.73,24.59,36.27,0.04,-272.73,-272.74,-53,558,-917,21.6,10.8,-10.3,21.8,11.2,-9.8,5.73,2.29,-23.9,27.1
2012-05-14 01:26:00,0.0,1.9012,0.0010,403.79,0.26,229.7,33.4,138.14,26.74,24.60,36.27,0.04,-272.74,-272.73,-53,558,-918,21.6,10.9,-10.2,21.8,11.3,-9.7,5.73,2.31,-23.9,27.1
2012-05-14 01:27:00,0.0,1.9010,0.0009,403.67,0.30,222.9,35.3,138.14,26.74,24.60,36.28,0.04,-272.74,-272.74,-52,558,-917,21.6,10.9,-10.3,21.8,11.2,-9.7,5.73,2.37,-23.9,27.2
2012-05-14 01:28:00,0.0,1.9009,0.0009,403.80,0.28,225.7,28.3,138.14,26.75,24.60,36.27,0.04,-272.74,-272.74,-52,558,-917,21.6,10.8,-10.4,21.8,11.1,-9.8,5.73,2.39,-23.9,27.2
2012-05-14 01:29:00,0.0,1.9011,0.0009,403.74,0.28,222.8,31.0,138.14,26.75,24.60,36.27,0.04,-272.74,-272.73,-53,558,-918,21.6,10.8,-10.3,21.8,11.2,-9.8,5.73,2.34,-23.9,27.2
2012-05-14 01:30:00,0.0,1.9012,0.0010,403.82,0.32,217.5,36.8,138.14,26.75,24.60,36.27,0.04,-272.73,-272.74,-53,558,-918,21.6,10.9,-10.2,21.9,11.2,-9.7,5.73,2.30,-23.9,27.2
2012-05-14 01:31:00,0.0,1.9008,0.0008,403.71,0.27,224.1,35.8,138.14,26.76,24.60,36.28,0.04,-272.74,-272.74,-53,558,-917,21.6,10.9,-10.2,21.9,11.3,-9.6,5.73,2.30,-23.9,27.2
2012-05-14 01:32:00,0.0,1.9012,0.0008,403.84,0.32,214.5,30.0,138.14,26.76,24.60,36.27,0.04,-272.73,-272.74,-53,558,-918,21.7,10.9,-10.2,21.9,11.3,-9.6,5.73,2.34,-23.9,27.2
2012-05-14 01:33:00,0.0,1.9011,0.0011,403.76,0.30,217.6,35.6,138.14,26.76,24.60,36.27,0.04,-272.73,-272.73,-53,558,-917,21.6,10.9,-10.3,21.9,11.2,-9.7,5.73,2.38,-23.9,27.2
2012-05-14 01:34:00,0.0,1.9014,0.0007,403.83,0.30,223.8,33.6,138.14,26.77,24.59,36.27,0.04,-272.74,-272.74,-53,558,-918,21.6,10.9,-10.2,21.9,11.2,-9.7,5.73,2.37,-23.9,27.2
2012-05-14 01:35:00,0.0,1.9012,0.0009,403.73,0.26,227.2,35.0,138.14,26.77,24.59,36.28,0.04,-272.74,-272.74,-53,558,-917,21.6,11.0,-10.1,21.9,11.4,-9.5,5.73,2.33,-23.9,27.2
2012-05-14 01:36:00,0.0,1.9008,0.0008,403.83,0.30,230.1,32.1,138.14,26.78,24.60,36.27,0.04,-272.73,-272.74,-53,559,-918,21.7,10.8,-10.3,21.9,11.2,-9.8,5.73,2.29,-23.9,27.2
2012-05-14 01:37:00,0.0,1.9013,0.0010,403.81,0.38,225.6,35.8,138.14,26.78,24.59,36.27,0.04,-272.74,-272.74,-53,559,-917,21.7,10.7,-10.5,21.9,11.0,-9.9,5.73,2.31,-23.9,27.2
2012-05-14 01:38:00,0.0,1.9010,0.0009,403.85,0.28,228.9,30.8,138.14,26.79,24.60,36.27,0.04,-272.73,-272.74,-53,559,-918,21.7,10.6,-10.5,21.9,11.0,-10.0,5.73,2.36,-23.9,27.2
2012-05-14 01:39:00,0.0,1.9014,0.0010,403.85,0.24,220.5,36.3,138.14,26.80,24.60,36.27,0.04,-272.74,-272.73,-53,559,-917,21.7,10.6,-10.5,21.9,11.0,-10.0,5.73,2.39,-23.9,27.2
2012-05-14 01:40:00,0.0,1.9014,0.0011,403.70,0.32,222.7,32.6,138.14,26.80,24.60,36.28,0.04,-272.73,-272.74,-53,559,-918,21.7,10.6,-10.5,21.9,10.9,-10.0,5.73,2.35,-23.9,27.2
2012-05-14 01:41:00,0.0,1.9012,0.0008,403.79,0.28,218.8,38.2,138.14,26.81,24.60,36.27,0.04,-272.74,-272.74,-53,559,-917,21.7,10.6,-10.6,21.9,10.9,-10.0,5.73,2.30,-23.9,27.2
2012-05-14 01:42:00,0.0,1.9008,0.0009,403.82,0.30,225.3,35.2,138.14,26.81,24.60,36.28,0.04,-272.74,-272.74,-53,559,-918,21.7,10.6,-10.5,21.9,10.9,-9.9,5.73,2.29,-23.9,27.2
2012-05-14 01:43:00,0.0,1.9011,0.0010,403.86,0.27,221.5,35.7,138.14,26.82,24.60,36.27,0.04,-272.73,-272.73,-53,559,-917,21.7,10.7,-10.4,21.9,11.0,-9.9,5.73,2.34,-23.9,27.3
2012-05-14 01:44:00,0.0,1.9009,0.0009,403.85,0.31,229.4,29.4,138.14,26.82,24.60,36.27,0.04,-272.73,-272.74,-53,559,-918,21.7,10.7,-10.4,21.9,11.1,-9.8,5.73,2.39,-23.9,27.3
2012-05-14 01:45:00,0.0,1.9014,0.0008,403.77,0.29,228.5,34.4,138.14,26.83,24.60,36.28,0.04,-272.74,-272.74,-53,558,-918,21.7,10.7,-10.4,21.9,11.1,-9.8,5.73,2.37,-23.9,27.2
2012-05-14 01:46:00,0.0,1.9010,0.0007,403.89,0.30,223.8,33.8,138.14,26.83,24.60,36.27,0.04,-272.74,-272.74,-53,559,-918,21.7,10.7,-10.3,21.9,11.0,-9.8,5.73,2.32,-23.8,27.2
2012-05-14 01:47:00,0.0,1.9008,0.0009,403.86,0.26,232.7,37.0,138.14,26.84,24.60,36.28,0.04,-272.74,-272.74,-53,559,-918,21.7,10.7,-10.4,21.9,11.0,-9.8,5.73,2.29,-23.9,27.2
2012-05-14 01:48:00,0.0,1.9009,0.0008,403.92,0.26,228.8,32.4,138.14,26.84,24.60,36.27,0.04,-272.74,-272.74,-53,559,-918,21.7,10.7,-10.4,21.9,11.0,-9.8,5.73,2.31,-23.9,27.2
2012-05-14 01:49:00,0.0,1.9008,0.0011,403.98,0.32,227.7,30.0,138.14,26.85,24.60,36.27,0.04,-272.74,-272.74,-53,559,-918,21.7,10.7,-10.4,21.9,11.0,-9.9,5.73,2.37,-23.9,27.2
2012-05-14 01:50:00,0.0,1.9002,0.0010,404.04,0.25,236.0,32.8,138.14,26.85,24.60,36.27,0.04,-272.73,-272.74,-53,559,-918,21.7,10.6,-10.5,21.9,10.9,-10.0,5.73,2.39,-23.9,27.3
2012-05-14 01:51:00,0.0,1.9005,0.0009,403.90,0.27,230.1,36.5,138.14,26.86,24.60,36.28,0.04,-272.74,-272.74,-53,559,-917,21.7,10.6,-10.5,22.0,10.9,-10.0,5.73,2.35,-23.8,27.3
2012-05-14 01:52:00,0.0,1.9004,0.0011,403.96,0.28,234.5,32.0,138.14,26.86,24.60,36.28,0.04,-272.74,-272.74,-53,559,-918,21.7,10.6,-10.5,22.0,10.9,-9.9,5.73,2.30,-23.8,27.3
2012-05-14 01:53:00,0.0,1.9004,0.0009,404.01,0.32,228.6,31.9,138.13,26.87,24.60,36.27,0.04,-272.73,-272.73,-53,559,-919,21.7,10.6,-10.5,22.0,10.9,-10.0,5.73,2.29,-23.8,27.3
2012-05-14 01:54:00,0.0,1.9009,0.0008,404.00,0.32,234.8,33.4,138.14,26.87,24.60,36.27,0.04,-272.74,-272.73,-54,559,-918,21.7,10.6,-10.5,22.0,10.9,-9.9,5.73,2.33,-23.8,27.3
2012-05-14 01:55:00,0.0,1.9010,0.0009,403.85,0.26,231.8,36.8,138.14,26.87,24.59,36.27,0.04,-272.73,-272.74,-52,560,-917,21.7,10.7,-10.4,22.0,11.0,-9.8,5.73,2.37,-23.8,27.3
2012-05-14 01:56:00,0.0,1.9011,0.0010,403.91,0.35,228.8,35.2,138.14,26.88,24.60,36.27,0.04,-272.73,-272.74,-55,557,-917,21.8,10.7,-10.3,22.0,11.0,-9.8,5.73,2.38,-23.8,27.3
2012-05-14 01:57:00,0.0,1.9006,0.0009,403.86,0.25,238.5,34.8,138.13,26.88,24.60,36.27,0.04,-272.74,-272.73,-53,554,-917,21.8,10.8,-10.2,22.0,11.1,-9.7,5.73,2.33,-23.8,27.3
2012-05-14 01:58:00,0.0,1.9011,0.0011,403.78,0.26,231.4,32.8,138.13,26.89,24.60,36.27,0.04,-272.74,-272.74,-53,560,-917,21.8,10.8,-10.3,22.0,11.1,-9.7,5.73,2.29,-23.8,27.3
2012-05-14 01:59:00,0.0,1.9011,0.0009,403.76,0.28,232.8,37.1,138.13,26.89,24.60,36.27,0.04,-272.74,-272.74,-53,560,-918,21.8,10.8,-10.2,22.0,11.1,-9.6,5.73,2.31,-23.8,27.3
2012-05-14 02:00:00,0.0,1.9013,0.0007,403.89,0.31,241.7,33.5,138.13,26.90,24.60,36.27,0.04,-272.73,-272.73,-53,559,-917,21.8,10.7,-10.3,22.0,11.1,-9.7,5.73,2.36,-23.8,27.3
2012-05-14 02:01:00,0.0,1.9012,0.0009,403.77,0.31,234.6,36.8,138.13,26.91,24.60,36.27,0.04,-272.73,-272.74,-53,560,-918,21.8,10.8,-10.3,22.0,11.1,-9.7,5.73,2.39,-23.8,27.3
2012-05-14 02:02:00,0.0,1.9009,0.0011,403.78,0.29,222.8,31.4,138.13,26.91,24.60,36.27,0.04,-272.74,-272.73,-53,559,-917,21.8,10.8,-10.2,22.0,11.2,-9.6,5.73,2.35,-23.8,27.4
2012-05-14 02:03:00,0.0,1.9013,0.0009,403.85,0.29,233.8,37.9,138.13,26.92,24.60,36.27,0.04,-272.74,-272.73,-53,559,-918,21.8,10.9,-10.1,22.0,11.2,-9.5,5.73,2.30,-23.8,27.4
2012-05-14 02:04:00,0.0,1.9016,0.0009,403.82,0.22,230.3,31.6,138.13,26.92,24.59,36.27,0.04,-272.73,-272.74,-53,559,-918,21.8,10.9,-10.1,22.0,11.2,-9.5,5.73,2.29,-23.8,27.4
2012-05-14 02:05:00,0.0,1.9014,0.0010,403.73,0.26,228.3,30.6,138.13,26.93,24.60,36.28,0.04,-272.74,-272.74,-53,559,-918,21.8,10.9,-10.1,22.0,11.2,-9.6,5.73,2.32,-23.8,27.4
2012-05-14 02:06:00,0.0,1.9016,0.0008,403.81,0.28,241.9,34.7,138.13,26.93,24.59,36.28,0.04,-272.74,-272.73,-53,559,-918,21.8,10.9,-10.1,22.1,11.2,-9.6,5.73,2.37,-23.8,27.4
2012-05-14 02:07:00,0.0,1.9017,0.0008,403.75,0.32,231.0,39.1,138.13,26.94,24.60,36.28,0.04,-272.73,-272.73,-53,559,-918,21.8,11.0,-10.0,22.1,11.3,-9.4,5.73,2.38,-23.8,27.4
2012-05-14 02:08:00,0.0,1.9013,0.0008,403.86,0.31,237.4,30.9,138.13,26.95,24.60,36.27,0.04,-272.74,-272.74,-53,559,-917,21.8,11.0,-10.0,22.1,11.3,-9.4,5.73,2.34,-23.8,27.4
2012-05-14 02:09:00,0.0,1.9020,0.0008,403.74,0.24,240.4,32.9,138.13,26.95,24.59,36.28,0.04,-272.73,-272.74,-53,560,-918,21.8,11.0,-9.9,22.1,11.3,-9.4,5.73,2.30,-23.8,27.4
2012-05-14 02:10:00,0.0,1.9015,0.0010,403.85,0.30,237.3,36.6,138.13,26.96,24.60,36.27,0.04,-272.73,-272.74,-53,560,-917,21.9,11.0,-9.9,22.1,11.4,-9.4,5.73,2.29,-23.7,27.5
2012-05-14 02:11:00,0.0,1.9016,0.0009,403.83,0.29,236.9,39.4,138.13,26.96,24.60,36.27,0.04,-272.73,-272.74,-53,560,-918,21.8,11.1,-9.9,22.1,11.4,-9.3,5.73,2.33,-23.8,27.4
2012-05-14 02:12:00,0.0,1.9013,0.0010,403.87,0.28,234.2,36.8,138.13,26.97,24.60,36.27,0.04,-272.74,-272.74,-53,560,-917,21.9,11.1,-9.8,22.1,11.5,-9.2,5.73,2.38,-23.8,27.4
2012-05-14 02:13:00,0.0,1.9014,0.0009,403.79,0.32,247.9,30.8,138.13,26.97,24.60,36.27,0.04,-272.73,-272.74,-53,560,-918,21.9,11.0,-9.9,22.1,11.4,-9.3,5.73,2.37,-23.8,27.4
2012-05-14 02:14:00,0.0,1.9012,0.0008,403.78,0.34,237.6,31.9,138.13,26.98,24.60,36.28,0.04,-272.73,-272.74,-53,559,-917,21.9,11.1,-9.9,22.1,11.4,-9.3,5.73,2.33,-23.8,27.4
2012-05-14 02:15:00,0.0,1.9016,0.0008,403.65,0.27,238.2,31.3,138.13,26.98,24.60,36.28,0.04,-272.74,-272.74,-53,560,-918,21.9,11.1,-9.8,22.1,11.4,-9.2,5.73,2.29,-23.8,27.4